Champaign, IL

6:01 AM CDT on August 24, 2019 (GMT -0500)
Univ Of Illinois-Willard

Weather History for KCMI - July, 2019

Change the Weather History Date:

Tuesday, July 23, 2019

  Actual Average Record
Temperature  
Mean Temperature 68 °F 74 °F  
Max Temperature 82 °F 84 °F 99 °F (2012)
Min Temperature 53 °F 64 °F 33 °F (1996)
Degree Days  
Heating Degree Days 0 0  
Month to date heating degree days 0 0  
Since 1 June heating degree days 7 17  
Since 1 July heating degree days 0 0  
Cooling Degree Days 3 9  
Month to date cooling degree days 308 216  
Year to date cooling degree days 652 531  
Since 1 June cooling degree days 542 439  
Growing Degree Days 18 (Base 50)    
Moisture  
Dew Point 55 °F    
Average Humidity 68    
Maximum Humidity 93    
Minimum Humidity 42    
Precipitation  
Precipitation 0.00 in 0.16 in 0.66 in (2001)
Month to date precipitation 3.56 3.36  
Year to date precipitation 24.31 22.69  
Sea Level Pressure  
Sea Level Pressure 30.11 in    
Wind  
Wind Speed 9 mph (NNW)    
Max Wind Speed 17 mph    
Max Gust Speed 26 mph    
Visibility 10 miles    
Events      
T = Trace of Precipitation, MM = Missing Value Source: NWS Daily Summary

Daily Weather History Graph

Daily Weather History Graph

Search for Another Location

Airport or City:

Astronomy

Jul. 23, 2019 Rise Set
Actual Time 5:43 AM CDT 8:15 PM CDT
Civil Twilight 5:11 AM CDT 8:46 PM CDT
Nautical Twilight 4:33 AM CDT 9:25 PM CDT
Astronomical Twilight 3:49 AM CDT 10:08 PM CDT
Moon No Moon Rise 11:56 AM CDT (7/23)
Length of Visible Light 15h 34m
Length of Day
14h 32m
Waning Gibbous, 63% of the Moon is Illuminated
Jul 23
Waning Gibbous
Jul 24
Last Quarter
Jul 31
New
Aug 7
First Quarter
Aug 15
Full

Hourly Weather History & Observations

Time (CDT) Temp. Heat Index Dew Point Humidity Pressure Visibility Wind Dir Wind Speed Gust Speed Precip Events Conditions
12:53 AM 55.9 °F - 52.0 °F 87% 30.11 in 10.0 mi NW 4.6 mph - N/A   Clear
1:53 AM 55.0 °F - 51.1 °F 86% 30.10 in 10.0 mi Calm Calm - N/A   Clear
2:53 AM 54.0 °F - 51.1 °F 90% 30.11 in 10.0 mi NNW 5.8 mph - N/A   Clear
3:53 AM 54.0 °F - 51.1 °F 90% 30.10 in 10.0 mi NW 5.8 mph - N/A   Clear
4:53 AM 54.0 °F - 51.1 °F 90% 30.11 in 10.0 mi NW 5.8 mph - N/A   Clear
5:53 AM 54.0 °F - 51.1 °F 90% 30.12 in 10.0 mi NW 5.8 mph - N/A   Clear
6:53 AM 57.9 °F - 54.0 °F 87% 30.14 in 10.0 mi NW 6.9 mph - N/A   Clear
7:53 AM 64.0 °F - 55.9 °F 75% 30.14 in 10.0 mi NNW 5.8 mph - N/A   Partly Cloudy
8:53 AM 71.1 °F - 57.0 °F 61% 30.14 in 10.0 mi NNW 8.1 mph - N/A   Partly Cloudy
9:53 AM 73.9 °F - 57.9 °F 57% 30.14 in 10.0 mi WNW 10.4 mph - N/A   Clear
10:53 AM 77.0 °F - 57.9 °F 52% 30.13 in 10.0 mi NNW 11.5 mph 20.7 mph N/A   Clear
11:53 AM 80.1 °F 80.4 °F 57.0 °F 45% 30.12 in 10.0 mi North 13.8 mph 21.9 mph N/A   Partly Cloudy
12:53 PM 80.1 °F 80.1 °F 55.0 °F 42% 30.12 in 10.0 mi North 12.7 mph 21.9 mph N/A   Mostly Cloudy
1:53 PM 80.1 °F 80.2 °F 55.9 °F 43% 30.10 in 10.0 mi NNW 8.1 mph 20.7 mph N/A   Mostly Cloudy
2:53 PM 80.1 °F 80.4 °F 57.0 °F 45% 30.08 in 10.0 mi NW 10.4 mph 21.9 mph N/A   Scattered Clouds
3:53 PM 81.0 °F 81.1 °F 57.9 °F 45% 30.07 in 10.0 mi NW 13.8 mph 23.0 mph N/A   Partly Cloudy
4:53 PM 81.0 °F 81.0 °F 57.0 °F 44% 30.06 in 10.0 mi NNW 15.0 mph - N/A   Partly Cloudy
5:53 PM 80.1 °F 80.2 °F 55.9 °F 43% 30.06 in 10.0 mi NW 15.0 mph 23.0 mph N/A   Clear
6:53 PM 78.1 °F - 55.0 °F 45% 30.06 in 10.0 mi North 15.0 mph 23.0 mph N/A   Clear
7:53 PM 75.0 °F - 57.0 °F 53% 30.07 in 10.0 mi North 6.9 mph - N/A   Clear
9:53 PM 70.0 °F - 60.1 °F 71% 30.11 in 10.0 mi NE 6.9 mph - N/A   Clear
10:53 PM 66.0 °F - 57.9 °F 75% 30.12 in 10.0 mi ENE 5.8 mph - N/A   Clear
11:53 PM 66.0 °F - 57.0 °F 73% 30.12 in 10.0 mi NE 5.8 mph - N/A   Clear